CAPE
5 302 419 574 743 908 1033 1205 1337 1438 1556 1568 1670 1528 1258 943 514 20 0 19 364 337 278 166 228 561 351 181 122 183 212 175
0 118 473 582 874 931 1129 1095 1424 1544 1609 1630 1576 1407 1207 922 124 0 0 0 198 389 349 276 127 440 312 210 26 97 164 169
206 52 263 392 725 1128 1259 1218 1472 1607 1370 1667 1478 1203 957 772 0 0 0 13 52 207 219 299 489 486 212 163 17 75 113 150
472 188 128 396 667 1051 1357 1222 1428 1609 1402 1494 1509 1105 662 422 29 0 1 191 319 346 527 568 119 53 144 172 18 17 103 145
805 468 144 312 626 757 1062 1199 1124 1406 1274 1459 1542 1127 811 480 127 46 53 303 441 393 385 280 120 63 94 52 32 36 68 127
1207 962 421 273 620 611 769 1093 1013 1067 1166 1418 1329 1376 932 685 287 110 76 237 204 150 263 206 103 92 90 50 34 35 77 98
1400 1507 1273 701 513 550 642 821 927 822 994 1313 1360 1458 1217 812 458 300 208 253 170 142 156 148 87 88 113 92 35 16 42 63
1733 1714 1774 1550 1035 938 787 805 781 905 996 1280 1445 1528 1392 1009 704 525 356 242 354 234 202 109 104 78 78 42 14 5 23 14
1898 1912 1986 2039 1744 1413 1404 1219 1032 913 993 1238 1502 1507 1436 1217 891 733 611 440 364 375 259 118 51 36 21 48 12 1 0 0
1302 2166 2127 2088 2186 1799 1671 1564 1466 1372 1416 1280 1535 1608 1418 1221 1038 883 715 605 518 462 217 88 19 16 19 26 12 0 0 0
101 1868 1968 2194 2268 2011 1774 1636 1632 1610 1709 1630 1524 1690 1554 1289 1170 913 673 584 508 425 179 44 11 13 16 9 0 0 0 0
31 1411 2327 2426 2141 2084 1708 1642 1558 1400 1619 1780 1668 1689 1613 1438 1264 1015 720 600 443 309 189 27 3 6 4 0 2 1 0 2
164 1631 2316 2070 1553 1636 1388 1494 1471 1532 1398 1657 1758 1844 1757 1480 1202 832 730 754 500 209 100 0 0 0 0 3 10 0 0 0
0 0 0 786 1279 1505 1452 1481 1411 1624 1520 1168 1618 1792 1638 1364 1118 744 677 605 423 267 146 11 0 1 3 13 4 5 0 0
64 97 156 158 103 24 727 1494 1400 1410 1421 1394 1115 1447 1616 1373 948 790 579 510 498 308 147 61 19 8 3 1 2 2 0 0
64 54 52 198 450 134 193 639 938 1022 881 1193 1374 1167 1071 1278 1031 899 741 568 484 359 206 134 40 17 6 0 0 0 0 0
60 64 73 132 163 326 407 197 57 347 1039 1204 1027 811 871 1114 1008 844 774 650 565 400 289 91 11 7 5 1 0 0 0 0
0 35 115 192 198 94 23 33 480 614 561 849 765 571 831 845 808 874 941 761 525 414 330 174 36 1 2 1 1 0 0 0
2 10 82 219 227 182 74 10 55 465 581 615 610 542 687 707 706 634 775 637 504 399 315 180 45 6 0 1 2 0 0 0
22 2 0 9 29 40 66 28 5 42 134 308 470 266 221 405 585 567 546 510 411 290 263 163 34 2 2 0 12 0 0 0
CIN
-706 -543 -470 -411 -348 -312 -264 -215 -171 -127 -93 -88 -62 -69 -89 -99 -130 -323 -0 -222 -120 -96 -72 -68 -60 -31 -37 -63 -40 -30 -40 -39
-0 -601 -486 -440 -372 -329 -284 -260 -191 -143 -103 -97 -85 -78 -96 -99 -144 -0 -0 -0 -149 -85 -70 -80 -77 -41 -48 -44 -53 -74 -75 -59
-493 -590 -512 -472 -413 -327 -280 -263 -197 -153 -155 -90 -113 -116 -139 -135 -0 -0 -0 -233 -176 -100 -80 -80 -61 -45 -48 -52 -70 -68 -66 -65
-418 -496 -525 -480 -421 -336 -260 -268 -222 -170 -170 -129 -126 -156 -197 -209 -303 -0 -30 -164 -118 -98 -76 -71 -112 -107 -105 -88 -66 -63 -59 -54
-347 -382 -504 -457 -415 -390 -305 -268 -270 -203 -206 -157 -123 -164 -177 -211 -258 -276 -254 -145 -117 -119 -104 -124 -124 -100 -62 -65 -53 -66 -94 -60
-247 -345 -393 -448 -402 -418 -366 -280 -280 -259 -225 -167 -162 -145 -170 -199 -236 -269 -256 -181 -155 -164 -124 -115 -105 -88 -45 -49 -52 -68 -79 -68
-185 -255 -279 -357 -384 -410 -387 -335 -296 -304 -254 -187 -170 -141 -147 -185 -222 -235 -231 -190 -195 -163 -132 -102 -102 -75 -52 -92 -78 -90 -88 -83
-151 -185 -230 -255 -299 -340 -353 -332 -318 -283 -253 -196 -150 -123 -122 -158 -174 -186 -213 -213 -164 -142 -94 -80 -87 -63 -52 -84 -95 -92 -101 -131
-126 -154 -215 -206 -223 -273 -265 -262 -265 -263 -242 -177 -120 -103 -100 -111 -139 -149 -163 -164 -149 -109 -58 -59 -67 -50 -86 -60 -63 -67 -0 -0
-120 -129 -160 -176 -182 -218 -227 -188 -181 -181 -164 -151 -99 -74 -68 -83 -95 -120 -144 -125 -114 -93 -75 -59 -67 -55 -37 -28 -42 -0 -0 -0
-161 -141 -133 -161 -177 -208 -169 -159 -128 -127 -108 -105 -93 -48 -36 -59 -64 -86 -120 -112 -108 -88 -101 -86 -78 -51 -49 -37 -0 -30 -0 -0
-196 -148 -137 -151 -171 -137 -117 -128 -109 -109 -84 -70 -79 -51 -47 -38 -54 -76 -104 -107 -104 -105 -95 -103 -93 -91 -68 -0 -38 -19 -25 -109
-206 -152 -123 -125 -81 -85 -73 -78 -103 -104 -95 -60 -49 -31 -47 -37 -49 -94 -100 -98 -115 -141 -114 -0 -0 -0 -44 -8 -9 -0 -0 -0
-0 -0 -0 -181 -89 -58 -39 -59 -93 -84 -80 -80 -43 -34 -40 -53 -45 -89 -103 -101 -122 -120 -95 -22 -0 -29 -35 -8 -9 -4 -0 -0
-228 -235 -217 -185 -155 -190 -125 -76 -76 -64 -50 -45 -63 -49 -38 -47 -61 -72 -93 -103 -114 -127 -105 -102 -78 -60 -38 -25 -3 -0 -0 -0
-275 -278 -287 -224 -152 -152 -114 -59 -32 -53 -58 -75 -52 -52 -33 -38 -45 -50 -66 -89 -107 -125 -121 -92 -79 -76 -55 -0 -0 -0 -0 -0
-288 -315 -316 -311 -276 -182 -99 -94 -174 -113 -70 -51 -55 -40 -35 -39 -39 -37 -47 -71 -91 -117 -107 -104 -102 -69 -73 -0 -0 -0 -0 -0
-0 -326 -285 -246 -205 -199 -181 -153 -69 -59 -67 -47 -49 -38 -33 -42 -49 -42 -42 -68 -102 -119 -101 -83 -110 -35 -19 -49 -79 -0 -0 -0
-220 -365 -329 -221 -224 -200 -204 -203 -123 -25 -25 -28 -39 -36 -48 -56 -45 -73 -54 -70 -96 -98 -87 -84 -116 -39 -0 -9 -46 -0 -0 -0
-321 -211 -25 -432 -405 -326 -216 -191 -206 -130 -40 -9 -22 -48 -63 -68 -69 -62 -79 -77 -101 -110 -95 -93 -120 -10 -29 -7 -15 -9 -0 -0
Wind_Speed
3 3 5 6 8 9 10 11 11 12 13 13 14 14 14 15 14 14 13 11 10 10 11 10 9 7 6 3 4 5 5 3
2 2 2 3 4 7 8 9 10 10 11 11 12 13 13 13 13 13 12 10 10 10 11 10 8 7 5 6 7 9 1 2
4 3 2 2 1 3 6 6 7 8 8 9 11 11 11 12 12 11 11 10 10 10 9 9 9 7 4 7 5 7 4 2
8 7 5 3 3 1 2 3 3 4 5 6 7 9 10 10 10 11 10 9 9 9 8 7 6 3 4 7 10 4 2 1
9 8 7 7 5 4 3 2 2 2 3 4 5 7 8 8 9 9 9 8 7 6 6 5 4 2 3 11 9 2 1 2
11 10 10 10 9 8 7 5 5 5 3 4 3 4 6 7 7 8 8 6 5 4 5 5 5 3 3 2 4 2 2 2
12 10 11 11 12 11 10 9 9 8 6 5 4 4 5 6 6 7 7 5 4 3 5 5 5 6 3 1 5 3 4 3
14 13 12 11 12 13 12 12 12 11 9 8 8 5 5 6 5 7 6 4 3 2 5 5 4 2 4 11 8 4 7 5
18 16 14 13 13 12 12 12 12 13 12 12 10 8 6 6 6 7 6 4 3 2 3 4 2 1 4 8 11 6 5 6
17 17 17 16 14 13 13 13 13 13 14 15 12 10 9 7 7 8 6 5 3 3 3 4 4 3 5 6 14 10 6 7
22 20 19 18 16 14 14 15 14 15 15 15 14 13 11 9 9 8 8 6 5 4 3 5 2 2 3 3 12 10 13 8
22 22 21 19 16 14 15 14 15 15 15 16 16 14 12 12 10 10 10 8 6 5 5 4 4 3 3 5 8 11 13 9
18 18 19 19 18 17 18 17 17 18 18 18 17 14 14 14 13 11 11 10 9 7 5 4 3 2 4 2 20 18 12 16
13 12 13 16 20 22 22 21 24 22 21 20 18 17 14 14 14 14 13 11 9 8 7 5 6 5 6 6 18 19 24 23
12 12 11 13 18 22 24 25 28 26 25 26 24 23 19 14 14 14 13 13 11 10 10 7 6 6 7 8 16 22 18 22
11 11 14 16 19 23 26 27 27 31 26 26 24 21 18 17 15 14 15 14 13 12 11 10 7 8 9 13 9 15 20 23
12 15 19 21 22 23 25 28 30 31 29 24 22 21 17 16 16 15 14 14 15 13 12 11 11 9 10 12 13 14 13 22
13 16 21 25 23 24 25 28 30 29 29 29 25 24 21 17 15 15 14 15 15 14 13 13 12 11 11 14 17 17 15 24
10 14 17 21 23 25 26 28 29 30 30 28 27 25 25 20 16 15 16 17 15 15 14 14 12 13 13 15 16 18 18 27
10 11 15 20 22 23 25 28 29 29 29 29 30 29 27 20 16 17 16 17 17 15 14 14 13 14 13 16 16 19 21 25
Wind_Direction
104 108 104 96 93 93 95 98 100 103 106 109 112 112 112 113 103 89 87 71 60 73 94 99 87 70 76 355 319 315 334 62
156 154 132 112 93 104 104 100 105 104 107 110 112 115 114 116 113 102 86 72 69 80 94 95 78 71 41 288 294 299 12 102
251 230 218 195 137 110 117 109 109 109 103 112 110 113 115 116 118 112 97 80 84 90 96 105 103 85 57 283 298 298 90 78
256 249 230 225 241 207 151 127 119 118 104 107 108 118 119 116 120 118 109 96 93 97 104 114 102 45 21 297 274 292 276 129
244 239 235 231 242 240 243 235 220 174 147 129 116 117 122 121 119 117 112 102 80 83 98 105 113 79 352 282 266 270 191 240
245 244 241 239 246 247 249 246 246 255 228 180 162 143 142 136 136 129 124 103 97 77 99 114 123 119 77 257 251 250 181 181
243 244 245 246 246 251 251 254 255 258 248 224 207 192 174 162 156 147 139 118 113 76 115 122 125 138 114 312 258 170 156 189
249 246 250 246 252 257 256 259 260 261 256 245 236 230 207 188 180 168 155 149 123 90 125 130 120 338 324 293 277 254 151 178
251 250 250 247 247 253 255 255 256 257 260 258 244 239 231 206 201 187 177 173 165 114 115 128 136 44 145 285 276 259 174 197
248 252 247 246 248 248 260 262 261 262 263 262 251 241 240 225 224 203 195 197 198 181 152 146 154 177 309 300 272 255 219 215
260 253 246 244 253 255 261 266 266 268 268 263 256 250 241 229 229 215 205 211 217 215 209 164 207 216 303 349 270 262 246 219
261 257 256 252 250 258 264 267 269 271 269 270 263 253 239 233 232 215 200 214 232 225 201 180 180 184 296 321 259 264 250 205
266 257 257 258 261 263 267 267 269 273 272 269 271 260 245 237 242 229 211 211 221 214 258 205 278 191 313 330 275 261 253 249
258 265 266 265 264 269 274 274 275 274 274 273 268 271 256 243 239 235 221 227 236 218 219 261 291 208 277 296 273 264 254 251
256 265 276 280 278 278 278 277 277 276 276 274 271 270 265 250 243 232 222 228 231 224 226 229 222 234 217 282 279 263 257 255
274 281 288 290 290 284 280 275 274 274 277 275 272 268 262 252 246 232 220 233 238 228 229 227 228 223 230 207 272 277 256 261
285 291 293 294 297 296 291 283 279 276 275 277 274 269 266 256 247 236 224 231 239 234 238 241 241 232 232 228 234 272 239 261
296 299 301 295 294 293 293 289 283 280 277 275 274 273 271 262 255 238 228 238 240 244 246 241 245 251 236 237 224 232 240 255
301 306 308 294 295 294 293 292 288 282 279 278 275 274 273 266 253 244 231 242 245 253 252 252 244 242 239 240 242 235 253 255
307 321 310 306 301 298 298 295 291 288 283 279 275 275 275 267 247 246 231 237 253 254 255 258 256 248 250 245 248 232 253 252